Cordova, SC

2:32 AM EDT on September 29, 2016 (GMT -0400)
Orangeburg Municipal

Weather History for KOGB - May, 2012

Change the Weather History Date:

Sunday, May 27, 2012

  Actual Average Record
Temperature  
Mean Temperature 80 °F 74 °F  
Max Temperature 90 °F 86 °F 101 °F (1953)
Min Temperature 70 °F 63 °F 44 °F (1961)
Degree Days  
Heating Degree Days 0 0  
Month to date heating degree days 0 10  
Since 1 July heating degree days 1765 2327  
Cooling Degree Days 15 10  
Month to date cooling degree days 254 178  
Year to date cooling degree days 492 263  
Growing Degree Days 30 (Base 50)    
Moisture  
Dew Point 65 °F    
Average Humidity 65    
Maximum Humidity 84    
Minimum Humidity 44    
Precipitation  
Precipitation 0.00 in 0.14 in 1.70 in (1966)
Month to date precipitation 3.19 2.59  
Year to date precipitation 12.15 16.99  
Sea Level Pressure  
Sea Level Pressure 30.03 in    
Wind  
Wind Speed 10 mph (ENE)    
Max Wind Speed 17 mph    
Max Gust Speed 26 mph    
Visibility 10 miles    
Events      
T = Trace of Precipitation, MM = Missing Value Source: NWS Daily Summary

Daily Weather History Graph

Daily Weather History Graph

Search for Another Location

Airport or City:

Trip Planner

Search our weather history database for the weather conditions in past years. The results will help you decide how hot, cold, wet, or windy it might be!

Date:

Astronomy

May. 27, 2012 Rise Set
Actual Time 6:16 AM EDT 8:25 PM EDT
Civil Twilight 5:47 AM EDT 8:53 PM EDT
Nautical Twilight 5:13 AM EDT 9:28 PM EDT
Astronomical Twilight 4:36 AM EDT 10:05 PM EDT
Moon 12:09 PM EDT (5/27) 12:40 AM EDT (5/27)
Length of Visible Light 15h 05m
Length of Day
14h 09m
Waxing Crescent, 38% of the Moon is Illuminated
May 27
Waxing Crescent
May 28
First Quarter
Jun 4
Full
Jun 11
Last Quarter
Jun 19
New

Hourly Weather History & Observations

Time (EDT) Temp. Heat Index Dew Point Humidity Pressure Visibility Wind Dir Wind Speed Gust Speed Precip Events Conditions
12:53 AM 75.0 °F - 63.0 °F 66% 30.05 in 10.0 mi NE 5.8 mph - N/A   Clear
1:53 AM 73.9 °F - 63.0 °F 68% 30.04 in 10.0 mi ENE 4.6 mph - N/A   Clear
2:53 AM 73.0 °F - 63.0 °F 71% 30.02 in 10.0 mi NE 8.1 mph - N/A   Clear
4:53 AM 71.1 °F - 63.0 °F 75% 30.02 in 10.0 mi NE 6.9 mph - N/A   Clear
5:53 AM 70.0 °F - 64.0 °F 81% 30.03 in 10.0 mi NNE 9.2 mph - N/A   Clear
6:53 AM 71.1 °F - 64.9 °F 81% 30.04 in 10.0 mi NE 6.9 mph - N/A   Clear
7:34 AM 71.6 °F - 64.4 °F 78% 30.06 in 10.0 mi NE 6.9 mph - N/A   Mostly Cloudy
7:53 AM 73.0 °F - 66.0 °F 79% 30.05 in 10.0 mi NNE 12.7 mph - N/A   Overcast
8:48 AM 75.2 °F - 66.2 °F 73% 30.06 in 10.0 mi NE 12.7 mph 18.4 mph N/A   Overcast
8:53 AM 75.0 °F - 66.9 °F 76% 30.05 in 10.0 mi NE 15.0 mph 19.6 mph N/A   Overcast
9:53 AM 79.0 °F - 66.9 °F 66% 30.05 in 10.0 mi NE 10.4 mph 19.6 mph N/A   Overcast
10:28 AM 80.6 °F 82.7 °F 66.2 °F 61% 30.06 in 10.0 mi NE 11.5 mph 20.7 mph N/A   Mostly Cloudy
10:53 AM 81.0 °F 83.8 °F 68.0 °F 65% 30.06 in 10.0 mi ENE 11.5 mph 18.4 mph N/A   Mostly Cloudy
11:53 AM 82.9 °F 85.8 °F 68.0 °F 60% 30.06 in 10.0 mi ENE 11.5 mph 19.6 mph N/A   Mostly Cloudy
12:53 PM 84.9 °F 87.6 °F 66.9 °F 55% 30.04 in 10.0 mi ENE 9.2 mph 17.3 mph N/A   Mostly Cloudy
1:53 PM 88.0 °F 89.6 °F 64.9 °F 46% 30.03 in 10.0 mi ENE 10.4 mph 19.6 mph N/A   Mostly Cloudy
2:53 PM 88.0 °F 89.3 °F 64.0 °F 45% 30.01 in 10.0 mi ESE 12.7 mph 20.7 mph N/A   Scattered Clouds
3:53 PM 89.1 °F 90.3 °F 64.0 °F 43% 29.99 in 10.0 mi ESE 11.5 mph 24.2 mph N/A   Partly Cloudy
4:53 PM 88.0 °F 89.3 °F 64.0 °F 45% 30.00 in 10.0 mi East 11.5 mph 23.0 mph N/A   Partly Cloudy
5:53 PM 87.1 °F 88.9 °F 64.9 °F 48% 29.99 in 10.0 mi East 12.7 mph 19.6 mph N/A   Clear
6:53 PM 84.9 °F 86.6 °F 64.9 °F 51% 30.00 in 10.0 mi East 10.4 mph 19.6 mph N/A   Clear
7:53 PM 82.0 °F 84.1 °F 66.0 °F 58% 30.00 in 10.0 mi East 11.5 mph - N/A   Clear
8:53 PM 79.0 °F - 66.9 °F 66% 30.01 in 10.0 mi East 4.6 mph - N/A   Clear
9:53 PM 78.1 °F - 66.9 °F 68% 30.03 in 10.0 mi East 5.8 mph - N/A   Clear
10:53 PM 77.0 °F - 68.0 °F 74% 30.04 in 10.0 mi ENE 9.2 mph - N/A   Clear
11:53 PM 75.0 °F - 68.0 °F 79% 30.04 in 10.0 mi ENE 5.8 mph - N/A   Clear